Location: Gull Harbor
(47.1000°N, 122.9000°W)
Time: 23:05:42
(UTC-07:00)

Tiangong - Pass Details

Date: 24 April 2024
Orbit: 372 x 376 km, 41.5° (Epoch: 19 May)

Event Time Altitude Azimuth Distance (km) Brightness Sun altitude
Rises 22:13:30 0° 263° (W) 2,256 2.3 -17.9°
Reaches altitude 10° 22:16:18 10° 236° (SW) 1,395 0.8 -18.2°
Enters shadow 22:17:12 13° 220° (SW) 1,238 0.4 -18.3°
